When you browse on this site, cookies collect data to enhance your experience and personalize the content and advertising you see.
Visit our Privacy Policy to learn more. By continuing to use the site, you agree to this use of cookies and data.
  • In Hungary
  • List of Countries
  • For 7 days
  • Water Temperature
  • Satellite Maps
  • Weather Map
  • News
  • Weather Widgets
  • user-avatar
    Login

    Hourly Weather Piła

    Today, 25 June, Tuesday

    Time Temperature Precipitation Wind Pressure Humidity
    00:00 +18°C° 0 mm 3 mps 764 mmHg 92%
    01:00 +17°C° 0 mm 3 mps 764 mmHg 93%
    02:00 +17°C° 0 mm 3 mps 764 mmHg 93%
    03:00 +17°C° 0 mm 3 mps 764 mmHg 92%
    04:00 +17°C° 0 mm 3 mps 763 mmHg 91%
    05:00 +18°C° 0 mm 3 mps 764 mmHg 86%
    06:00 +20°C° 0 mm 3 mps 764 mmHg 80%
    07:00 +21°C° 0 mm 3 mps 764 mmHg 75%
    08:00 +23°C° 0 mm 4 mps 764 mmHg 70%
    09:00 +25°C° 0 mm 4 mps 764 mmHg 65%
    10:00 +27°C° 0 mm 4 mps 764 mmHg 60%
    11:00 +27°C° 0 mm 4 mps 763 mmHg 58%
    12:00 +28°C° 0 mm 4 mps 763 mmHg 57%
    13:00 +29°C° 0 mm 4 mps 763 mmHg 55%
    14:00 +29°C° 0 mm 4 mps 762 mmHg 56%
    15:00 +29°C° 0 mm 4 mps 762 mmHg 58%
    16:00 +29°C° 0 mm 4 mps 762 mmHg 59%
    17:00 +29°C° 0 mm 3 mps 761 mmHg 65%
    18:00 +28°C° 0 mm 3 mps 761 mmHg 70%
    19:00 +27°C° 0 mm 2 mps 761 mmHg 75%
    20:00 +26°C° 0 mm 2 mps 761 mmHg 80%
    21:00 +25°C° 0 mm 2 mps 761 mmHg 85%
    22:00 +24°C° 0 mm 2 mps 761 mmHg 90%
    23:00 +23°C° 0 mm 2 mps 761 mmHg 91%

    Tomorrow, 26 June, Wednesday

    Time Temperature Precipitation Wind Pressure Humidity
    00:00 +23°C° 0 mm 2 mps 761 mmHg 92%
    01:00 +23°C° 0 mm 2 mps 761 mmHg 93%
    02:00 +23°C° 0 mm 2 mps 761 mmHg 93%
    03:00 +21°C° 0 mm 2 mps 760 mmHg 94%
    04:00 +21°C° 0 mm 2 mps 760 mmHg 94%
    05:00 +24°C° 0 mm 2 mps 760 mmHg 88%
    06:00 +25°C° 0 mm 2 mps 760 mmHg 81%
    07:00 +27°C° 0 mm 2 mps 760 mmHg 75%
    08:00 +29°C° 0 mm 3 mps 760 mmHg 69%
    09:00 +30°C° 0 mm 3 mps 759 mmHg 64%
    10:00 +33°C° 0 mm 4 mps 759 mmHg 58%
    11:00 +34°C° 0 mm 4 mps 759 mmHg 54%
    12:00 +35°C° 0 mm 4 mps 759 mmHg 50%
    13:00 +36°C° 0 mm 4 mps 758 mmHg 46%
    14:00 +36°C° 0 mm 5 mps 758 mmHg 48%
    15:00 +35°C° 0 mm 5 mps 758 mmHg 50%
    16:00 +35°C° 0 mm 5 mps 757 mmHg 51%
    17:00 +33°C° 0.3 mm 5 mps 757 mmHg 61%
    18:00 +30°C° 0.3 mm 5 mps 757 mmHg 71%
    19:00 +27°C° 0.3 mm 5 mps 757 mmHg 80%
    20:00 +25°C° 0 mm 5 mps 757 mmHg 80%
    21:00 +22°C° 0 mm 4 mps 758 mmHg 80%
    22:00 +20°C° 0 mm 4 mps 758 mmHg 80%
    23:00 +19°C° 0 mm 4 mps 758 mmHg 84%

    Day after tomorrow, 27 June, Thursday

    Time Temperature Precipitation Wind Pressure Humidity
    00:00 +18°C° 0 mm 4 mps 758 mmHg 87%
    01:00 +18°C° 0 mm 3 mps 758 mmHg 90%
    02:00 +18°C° 0 mm 4 mps 758 mmHg 87%
    03:00 +18°C° 0 mm 4 mps 758 mmHg 84%
    04:00 +19°C° 0 mm 5 mps 758 mmHg 80%
    05:00 +17°C° 0 mm 5 mps 758 mmHg 79%
    06:00 +16°C° 0 mm 5 mps 758 mmHg 77%
    07:00 +16°C° 0 mm 6 mps 758 mmHg 75%
    08:00 +17°C° 0 mm 6 mps 758 mmHg 74%
    09:00 +17°C° 0 mm 6 mps 759 mmHg 72%
    10:00 +19°C° 0 mm 6 mps 759 mmHg 71%
    11:00 +20°C° 0 mm 6 mps 759 mmHg 68%
    12:00 +21°C° 0 mm 6 mps 759 mmHg 66%
    13:00 +23°C° 0 mm 6 mps 759 mmHg 63%
    14:00 +23°C° 0 mm 6 mps 759 mmHg 63%
    15:00 +23°C° 0 mm 5 mps 759 mmHg 62%
    16:00 +23°C° 0 mm 5 mps 759 mmHg 62%
    17:00 +22°C° 0 mm 5 mps 759 mmHg 66%
    18:00 +21°C° 0 mm 4 mps 758 mmHg 70%
    19:00 +20°C° 0 mm 3 mps 758 mmHg 75%
    20:00 +19°C° 0 mm 3 mps 759 mmHg 81%
    21:00 +17°C° 0 mm 3 mps 759 mmHg 86%
    22:00 +16°C° 0 mm 2 mps 759 mmHg 92%
    23:00 +15°C° 0 mm 2 mps 759 mmHg 93%

    28 June, Friday

    Time Temperature Precipitation Wind Pressure Humidity
    00:00 +15°C° 0 mm 2 mps 759 mmHg 94%
    01:00 +14°C° 0 mm 2 mps 759 mmHg 96%
    02:00 +14°C° 0 mm 2 mps 758 mmHg 96%
    03:00 +13°C° 0 mm 3 mps 758 mmHg 97%
    04:00 +13°C° 0 mm 3 mps 758 mmHg 98%
    05:00 +16°C° 0.1 mm 3 mps 758 mmHg 93%
    06:00 +17°C° 0.1 mm 3 mps 758 mmHg 88%
    07:00 +18°C° 0.1 mm 4 mps 758 mmHg 84%
    08:00 +20°C° 0.1 mm 4 mps 758 mmHg 74%
    09:00 +21°C° 0.1 mm 4 mps 759 mmHg 65%
    10:00 +23°C° 0.1 mm 4 mps 759 mmHg 55%
    11:00 +23°C° 0 mm 4 mps 759 mmHg 51%
    12:00 +25°C° 0 mm 5 mps 759 mmHg 46%
    13:00 +25°C° 0 mm 5 mps 759 mmHg 42%
    14:00 +25°C° 0 mm 5 mps 759 mmHg 42%
    15:00 +23°C° 0 mm 5 mps 759 mmHg 42%
    16:00 +23°C° 0 mm 5 mps 759 mmHg 43%
    17:00 +22°C° 0 mm 4 mps 759 mmHg 48%
    18:00 +21°C° 0 mm 3 mps 759 mmHg 54%
    19:00 +20°C° 0 mm 3 mps 759 mmHg 59%
    20:00 +18°C° 0 mm 2 mps 760 mmHg 64%
    21:00 +17°C° 0 mm 2 mps 760 mmHg 69%
    22:00 +15°C° 0 mm 2 mps 760 mmHg 75%
    23:00 +15°C° 0 mm 1 mps 760 mmHg 78%

    29 June, Saturday

    Time Temperature Precipitation Wind Pressure Humidity
    00:00 +14°C° 0 mm 1 mps 760 mmHg 81%
    01:00 +14°C° 0 mm 1 mps 760 mmHg 84%
    02:00 +14°C° 0 mm 1 mps 760 mmHg 83%
    03:00 +14°C° 0 mm 2 mps 760 mmHg 82%
    04:00 +14°C° 0 mm 2 mps 760 mmHg 80%
    05:00 +15°C° 0 mm 2 mps 760 mmHg 76%
    06:00 +17°C° 0 mm 2 mps 760 mmHg 73%
    07:00 +19°C° 0 mm 3 mps 760 mmHg 69%
    08:00 +20°C° 0 mm 3 mps 760 mmHg 63%
    09:00 +22°C° 0 mm 3 mps 760 mmHg 56%
    10:00 +23°C° 0 mm 4 mps 760 mmHg 50%
    11:00 +25°C° 0 mm 3 mps 760 mmHg 50%
    12:00 +25°C° 0 mm 3 mps 760 mmHg 50%
    13:00 +25°C° 0 mm 3 mps 760 mmHg 51%
    14:00 +25°C° 0 mm 3 mps 760 mmHg 49%
    15:00 +25°C° 0 mm 3 mps 760 mmHg 47%
    16:00 +26°C° 0 mm 4 mps 759 mmHg 45%
    17:00 +24°C° 0 mm 3 mps 760 mmHg 51%
    18:00 +22°C° 0 mm 3 mps 760 mmHg 56%
    19:00 +21°C° 0 mm 2 mps 760 mmHg 61%
    20:00 +20°C° 0 mm 2 mps 760 mmHg 63%
    21:00 +19°C° 0 mm 1 mps 760 mmHg 66%
    22:00 +16°C° 0 mm 1 mps 760 mmHg 68%
    23:00 +16°C° 0 mm 1 mps 760 mmHg 69%

    30 June, Sunday

    Time Temperature Precipitation Wind Pressure Humidity
    00:00 +15°C° 0 mm 1 mps 760 mmHg 69%
    01:00 +15°C° 0 mm 1 mps 760 mmHg 70%
    02:00 +15°C° 0 mm 1 mps 759 mmHg 71%
    03:00 +14°C° 0 mm 2 mps 759 mmHg 72%
    04:00 +14°C° 0 mm 2 mps 759 mmHg 73%
    05:00 +16°C° 0 mm 2 mps 759 mmHg 70%
    06:00 +18°C° 0 mm 3 mps 759 mmHg 68%
    07:00 +19°C° 0 mm 3 mps 759 mmHg 65%
    08:00 +21°C° 0 mm 4 mps 758 mmHg 59%
    09:00 +23°C° 0 mm 4 mps 758 mmHg 53%
    10:00 +26°C° 0 mm 5 mps 758 mmHg 47%
    11:00 +27°C° 0 mm 5 mps 757 mmHg 46%
    12:00 +28°C° 0 mm 5 mps 757 mmHg 46%
    13:00 +29°C° 0 mm 6 mps 756 mmHg 45%
    14:00 +29°C° 0 mm 6 mps 755 mmHg 46%
    15:00 +29°C° 0 mm 6 mps 755 mmHg 47%
    16:00 +29°C° 0 mm 6 mps 754 mmHg 48%
    17:00 +28°C° 0 mm 5 mps 753 mmHg 53%
    18:00 +27°C° 0 mm 5 mps 753 mmHg 58%
    19:00 +26°C° 0 mm 5 mps 752 mmHg 63%
    20:00 +25°C° 0 mm 5 mps 752 mmHg 64%
    21:00 +23°C° 0 mm 4 mps 752 mmHg 65%
    22:00 +22°C° 0 mm 4 mps 751 mmHg 67%
    23:00 +22°C° 0 mm 4 mps 751 mmHg 67%
    Show more